This is the latest recevied weather packets stored in our database for station/object OK9CPU-9. If no packets are shown the sender has not sent any weather packets the latest 10 day(s).
| Time | Temp. | Humidity | Pressure | Rain* | Wind** | Luminosity | Snow |
|---|---|---|---|---|---|---|---|
| 1788719757 | 16.67° C | 33% | 1027.2 hPa | - | - | - | - |
| 1788714782 | 20° C | 32% | 1026.3 hPa | - | - | - | - |
| 1788686921 | 37.78° C | 19% | 1027.2 hPa | - | - | - | - |
| 1788685926 | 38.89° C | 18% | 1027.2 hPa | - | - | - | - |
| 1788684931 | 37.78° C | 18% | 1027.1 hPa | - | - | - | - |
| 1788674980 | 19.44° C | 24% | 1026.3 hPa | - | - | - | - |
| 1788673985 | 16.11° C | 27% | 1026.3 hPa | - | - | - | - |
| 1788625229 | 23.89° C | 30% | 1019.1 hPa | - | - | - | - |
| 1788599358 | 31.11° C | 18% | 1020.1 hPa | - | - | - | - |
| 1788592392 | 17.78° C | 30% | 1019 hPa | - | - | - | - |
| 1788579457 | 19.44° C | 31% | 1016.6 hPa | - | - | - | - |
| 1788537665 | 30.56° C | 28% | 1012 hPa | - | - | - | - |
| 1788509804 | 40.56° C | 16% | 1018.2 hPa | - | - | - | - |
| 1788505824 | 32.22° C | 18% | 1018.7 hPa | - | - | - | - |
| 1788447117 | 30° C | 23% | 1018.3 hPa | - | - | - | - |
| 1788392865 | 16.67° C | 33% | 1020 hPa | - | - | - | - |
| 1788391870 | 17.22° C | 33% | 1020.1 hPa | - | - | - | - |
| 1788390875 | 17.78° C | 33% | 1020 hPa | - | - | - | - |
| 1788387890 | 19.44° C | 32% | 1019.9 hPa | - | - | - | - |
| 1788385900 | 19.44° C | 32% | 1020 hPa | - | - | - | - |
| 1788380925 | 19.44° C | 33% | 1019.9 hPa | - | - | - | - |
| 1788378935 | 20° C | 34% | 1019.5 hPa | - | - | - | - |
| 1788377940 | 20.56° C | 34% | 1019.5 hPa | - | - | - | - |
| 1788372965 | 23.33° C | 33% | 1019 hPa | - | - | - | - |
| 1788370974 | 24.44° C | 32% | 1018.8 hPa | - | - | - | - |
* Rain since midnight (hover to see other rain measurements)
** Current wind speed in m/s (hover to see current wind gust speed)